Time,TemperatureF,DewpointF,PressureIn,WindDirection,WindDirectionDegrees,WindSpeedMPH,WindSpeedGustMPH,Humidity,HourlyPrecipIn,Conditions,Clouds,dailyrainin,SoftwareType,DateUTC
2013-02-11 00:02:00,61.0,-99.9,30.21,South,183,5.0,7.0,-999,-99.99,,,-99.99,,2013-02-11 05:02:00,
2013-02-11 00:12:00,60.0,-99.9,30.21,South,172,4.0,6.0,-999,-99.99,,,-99.99,,2013-02-11 05:12:00,
2013-02-11 00:22:00,60.0,-99.9,30.22,South,176,3.0,4.0,-999,-99.99,,,-99.99,,2013-02-11 05:22:00,
2013-02-11 00:32:00,58.0,-99.9,30.21,ENE,69,2.0,3.0,-999,-99.99,,,-99.99,,2013-02-11 05:32:00,
2013-02-11 00:42:00,58.0,-99.9,30.21,SE,126,1.0,3.0,-999,-99.99,,,-99.99,,2013-02-11 05:42:00,
2013-02-11 00:53:00,57.0,-99.9,30.21,SE,125,2.0,3.0,-999,-99.99,,,-99.99,,2013-02-11 05:53:00,
2013-02-11 01:02:00,58.0,-99.9,30.22,South,182,1.0,2.0,-999,-99.99,,,-99.99,,2013-02-11 06:02:00,
2013-02-11 01:12:00,58.0,-99.9,30.21,ESE,108,0.0,2.0,-999,-99.99,,,-99.99,,2013-02-11 06:12:00,
2013-02-11 01:22:00,58.0,-99.9,30.21,East,101,3.0,4.0,-999,-99.99,,,-99.99,,2013-02-11 06:22:00,
2013-02-11 01:32:00,57.0,-99.9,30.19,ESE,112,4.0,5.0,-999,-99.99,,,-99.99,,2013-02-11 06:32:00,
2013-02-11 01:42:00,58.0,-99.9,30.19,SE,132,3.0,6.0,-999,-99.99,,,-99.99,,2013-02-11 06:42:00,
2013-02-11 01:52:00,58.0,-99.9,30.18,ESE,115,3.0,4.0,-999,-99.99,,,-99.99,,2013-02-11 06:52:00,
2013-02-11 02:02:00,58.0,-99.9,30.19,SSW,200,2.0,6.0,-999,-99.99,,,-99.99,,2013-02-11 07:02:00,
2013-02-11 02:12:00,58.0,-99.9,30.19,SE,140,3.0,3.0,-999,-99.99,,,-99.99,,2013-02-11 07:12:00,
2013-02-11 02:22:00,58.0,-99.9,30.20,South,178,2.0,3.0,-999,-99.99,,,-99.99,,2013-02-11 07:22:00,
2013-02-11 02:32:00,59.0,-99.9,30.20,SSE,165,0.0,3.0,-999,-99.99,,,-99.99,,2013-02-11 07:32:00,
2013-02-11 02:42:00,58.0,-99.9,30.19,ENE,73,1.0,2.0,-999,-99.99,,,-99.99,,2013-02-11 07:42:00,
2013-02-11 02:52:00,58.0,-99.9,30.19,NE,45,1.0,2.0,-999,-99.99,,,-99.99,,2013-02-11 07:52:00,
2013-02-11 03:01:00,59.0,-99.9,30.18,SE,143,3.0,4.0,-999,-99.99,,,-99.99,,2013-02-11 08:01:00,
2013-02-11 03:11:00,58.0,-99.9,30.18,East,99,0.0,3.0,-999,-99.99,,,-99.99,,2013-02-11 08:11:00,
2013-02-11 03:22:00,58.0,-99.9,30.18,SE,144,1.0,2.0,-999,-99.99,,,-99.99,,2013-02-11 08:22:00,
2013-02-11 03:32:00,58.0,-99.9,30.18,North,-999,-999.0,-999.0,-999,-99.99,,,-99.99,,2013-02-11 08:32:00,
2013-02-11 03:42:00,59.0,-99.9,30.18,North,-999,-999.0,-999.0,-999,-99.99,,,-99.99,,2013-02-11 08:42:00,
2013-02-11 03:52:00,59.0,-99.9,30.18,North,-999,-999.0,-999.0,-999,-99.99,,,-99.99,,2013-02-11 08:52:00,
2013-02-11 04:02:00,58.0,-99.9,30.16,ENE,75,2.0,2.0,-999,-99.99,,,-99.99,,2013-02-11 09:02:00,
2013-02-11 04:12:00,58.0,-99.9,30.16,South,173,1.0,3.0,-999,-99.99,,,-99.99,,2013-02-11 09:12:00,
2013-02-11 04:22:00,58.0,-99.9,30.16,SSE,147,-999.0,2.0,-999,-99.99,,,-99.99,,2013-02-11 09:22:00,
2013-02-11 04:32:00,58.0,-99.9,30.15,East,88,1.0,2.0,-999,-99.99,,,-99.99,,2013-02-11 09:32:00,
2013-02-11 04:42:00,57.0,-99.9,30.15,SSE,149,3.0,4.0,-999,-99.99,,,-99.99,,2013-02-11 09:42:00,
2013-02-11 04:52:00,57.0,-99.9,30.15,South,191,3.0,4.0,-999,-99.99,,,-99.99,,2013-02-11 09:52:00,
2013-02-11 05:02:00,60.0,-99.9,30.15,South,186,8.0,9.0,-999,-99.99,,,-99.99,,2013-02-11 10:02:00,
2013-02-11 05:11:00,60.0,-99.9,30.14,South,174,12.0,13.0,-999,-99.99,,,-99.99,,2013-02-11 10:11:00,
2013-02-11 05:22:00,60.0,-99.9,30.13,South,172,13.0,14.0,-999,-99.99,,,-99.99,,2013-02-11 10:22:00,
2013-02-11 05:32:00,60.0,-99.9,30.13,South,177,11.0,13.0,-999,-99.99,,,-99.99,,2013-02-11 10:32:00,
2013-02-11 05:42:00,61.0,-99.9,30.14,SSW,196,6.0,11.0,-999,-99.99,,,-99.99,,2013-02-11 10:42:00,
2013-02-11 05:52:00,62.0,-99.9,30.14,SSW,201,7.0,9.0,-999,-99.99,,,-99.99,,2013-02-11 10:52:00,
2013-02-11 06:02:00,62.0,-99.9,30.15,SSW,202,9.0,13.0,-999,-99.99,,,-99.99,,2013-02-11 11:02:00,
2013-02-11 06:11:00,63.0,-99.9,30.15,SSW,202,10.0,15.0,-999,-99.99,,,-99.99,,2013-02-11 11:11:00,
2013-02-11 06:22:00,63.0,-99.9,30.16,SSW,205,8.0,13.0,-999,-99.99,,,-99.99,,2013-02-11 11:22:00,
2013-02-11 06:32:00,63.0,-99.9,30.16,SSW,209,9.0,12.0,-999,-99.99,,,-99.99,,2013-02-11 11:32:00,
2013-02-11 06:42:00,62.0,-99.9,30.16,SW,216,8.0,11.0,-999,-99.99,,,-99.99,,2013-02-11 11:42:00,
2013-02-11 06:52:00,62.0,-99.9,30.16,SW,221,6.0,9.0,-999,-99.99,,,-99.99,,2013-02-11 11:52:00,
2013-02-11 07:03:00,62.0,-99.9,30.15,SSW,203,6.0,9.0,-999,-99.99,,,-99.99,,2013-02-11 12:03:00,
2013-02-11 07:12:00,62.0,-99.9,30.15,SSW,202,5.0,8.0,-999,-99.99,,,-99.99,,2013-02-11 12:12:00,
2013-02-11 07:22:00,62.0,-99.9,30.15,SSW,211,7.0,9.0,-999,-99.99,,,-99.99,,2013-02-11 12:22:00,
2013-02-11 07:32:00,62.0,-99.9,30.15,SW,216,4.0,8.0,-999,-99.99,,,-99.99,,2013-02-11 12:32:00,
2013-02-11 07:43:00,62.0,-99.9,30.16,SW,217,6.0,10.0,-999,-99.99,,,-99.99,,2013-02-11 12:43:00,
2013-02-11 07:52:00,62.0,-99.9,30.16,SW,218,6.0,8.0,-999,-99.99,,,-99.99,,2013-02-11 12:52:00,
2013-02-11 08:02:00,62.0,-99.9,30.16,SSW,196,7.0,10.0,-999,-99.99,,,-99.99,,2013-02-11 13:02:00,
2013-02-11 08:12:00,62.0,-99.9,30.16,SW,230,5.0,9.0,-999,-99.99,,,-99.99,,2013-02-11 13:12:00,
2013-02-11 08:22:00,62.0,-99.9,30.16,SW,217,6.0,9.0,-999,-99.99,,,-99.99,,2013-02-11 13:22:00,
2013-02-11 08:33:00,62.0,-99.9,30.18,SW,223,7.0,11.0,-999,-99.99,,,-99.99,,2013-02-11 13:33:00,
2013-02-11 08:42:00,62.0,-99.9,30.18,SW,220,6.0,9.0,-999,-99.99,,,-99.99,,2013-02-11 13:42:00,
2013-02-11 08:52:00,62.0,-99.9,30.18,SW,227,7.0,10.0,-999,-99.99,,,-99.99,,2013-02-11 13:52:00,
2013-02-11 09:02:00,62.0,-99.9,30.16,SW,215,9.0,12.0,-999,-99.99,,,-99.99,,2013-02-11 14:02:00,
2013-02-11 09:12:00,62.0,-99.9,30.16,SSW,212,8.0,12.0,-999,-99.99,,,-99.99,,2013-02-11 14:12:00,
2013-02-11 09:22:00,62.0,-99.9,30.16,SW,219,11.0,16.0,-999,-99.99,,,-99.99,,2013-02-11 14:22:00,
2013-02-11 09:33:00,62.0,-99.9,30.15,SW,216,9.0,13.0,-999,-99.99,,,-99.99,,2013-02-11 14:33:00,
2013-02-11 09:42:00,62.0,-99.9,30.15,SW,215,8.0,12.0,-999,-99.99,,,-99.99,,2013-02-11 14:42:00,
2013-02-11 09:53:00,62.0,-99.9,30.14,SSW,208,8.0,13.0,-999,-99.99,,,-99.99,,2013-02-11 14:53:00,
2013-02-11 10:02:00,62.0,-99.9,30.14,SW,214,8.0,14.0,-999,-99.99,,,-99.99,,2013-02-11 15:02:00,
2013-02-11 10:12:00,63.0,-99.9,30.14,SSW,212,9.0,13.0,-999,-99.99,,,-99.99,,2013-02-11 15:12:00,
2013-02-11 10:22:00,63.0,-99.9,30.14,SSW,205,9.0,13.0,-999,-99.99,,,-99.99,,2013-02-11 15:22:00,
2013-02-11 10:32:00,63.0,-99.9,30.14,SW,215,10.0,15.0,-999,-99.99,,,-99.99,,2013-02-11 15:32:00,
2013-02-11 10:42:00,64.0,-99.9,30.14,SW,223,9.0,17.0,-999,-99.99,,,-99.99,,2013-02-11 15:42:00,
2013-02-11 10:52:00,64.0,-99.9,30.15,SW,228,10.0,13.0,-999,-99.99,,,-99.99,,2013-02-11 15:52:00,
2013-02-11 11:02:00,63.0,-99.9,30.15,SW,220,7.0,11.0,-999,-99.99,,,-99.99,,2013-02-11 16:02:00,
2013-02-11 11:12:00,63.0,-99.9,30.15,SW,220,9.0,13.0,-999,-99.99,,,-99.99,,2013-02-11 16:12:00,
2013-02-11 11:22:00,63.0,-99.9,30.14,SW,222,8.0,13.0,-999,-99.99,,,-99.99,,2013-02-11 16:22:00,
2013-02-11 11:32:00,63.0,-99.9,30.15,SW,226,8.0,11.0,-999,-99.99,,,-99.99,,2013-02-11 16:32:00,
2013-02-11 11:43:00,63.0,-99.9,30.14,SW,222,8.0,13.0,-999,-99.99,,,-99.99,,2013-02-11 16:43:00,
2013-02-11 11:53:00,63.0,-99.9,30.15,SW,232,8.0,11.0,-999,-99.99,,,-99.99,,2013-02-11 16:53:00,
2013-02-11 12:02:00,63.0,-99.9,30.15,SW,225,7.0,12.0,-999,-99.99,,,-99.99,,2013-02-11 17:02:00,
2013-02-11 12:12:00,63.0,-99.9,30.15,WSW,240,7.0,15.0,-999,-99.99,,,-99.99,,2013-02-11 17:12:00,
2013-02-11 12:22:00,63.0,-99.9,30.15,WSW,256,10.0,15.0,-999,-99.99,,,-99.99,,2013-02-11 17:22:00,
2013-02-11 12:32:00,63.0,-99.9,30.14,SW,220,6.0,11.0,-999,-99.99,,,-99.99,,2013-02-11 17:32:00,
2013-02-11 12:42:00,63.0,-99.9,30.14,SW,233,9.0,12.0,-999,-99.99,,,-99.99,,2013-02-11 17:42:00,
2013-02-11 12:53:00,63.0,-99.9,30.13,SW,221,10.0,18.0,-999,-99.99,,,-99.99,,2013-02-11 17:53:00,
2013-02-11 13:02:00,63.0,-99.9,30.12,SW,218,11.0,19.0,-999,-99.99,,,-99.99,,2013-02-11 18:02:00,
2013-02-11 13:12:00,63.0,-99.9,30.11,SW,216,12.0,17.0,-999,-99.99,,,-99.99,,2013-02-11 18:12:00,
2013-02-11 13:22:00,63.0,-99.9,30.11,SW,224,11.0,20.0,-999,-99.99,,,-99.99,,2013-02-11 18:22:00,
2013-02-11 13:32:00,64.0,-99.9,30.10,SW,218,10.0,14.0,-999,-99.99,,,-99.99,,2013-02-11 18:32:00,
2013-02-11 13:42:00,64.0,-99.9,30.09,SSW,213,9.0,13.0,-999,-99.99,,,-99.99,,2013-02-11 18:42:00,
2013-02-11 13:54:00,64.0,-99.9,30.09,SW,220,9.0,13.0,-999,-99.99,,,-99.99,,2013-02-11 18:54:00,
2013-02-11 14:02:00,64.0,-99.9,30.10,SW,218,9.0,15.0,-999,-99.99,,,-99.99,,2013-02-11 19:02:00,
2013-02-11 14:12:00,64.0,-99.9,30.09,SW,222,10.0,14.0,-999,-99.99,,,-99.99,,2013-02-11 19:12:00,
2013-02-11 14:22:00,64.0,-99.9,30.08,SW,220,8.0,14.0,-999,-99.99,,,-99.99,,2013-02-11 19:22:00,
2013-02-11 14:32:00,64.0,-99.9,30.07,SW,216,9.0,15.0,-999,-99.99,,,-99.99,,2013-02-11 19:32:00,
2013-02-11 14:42:00,64.0,-99.9,30.07,SW,219,10.0,18.0,-999,-99.99,,,-99.99,,2013-02-11 19:42:00,
2013-02-11 14:52:00,64.0,-99.9,30.07,SW,220,10.0,16.0,-999,-99.99,,,-99.99,,2013-02-11 19:52:00,
2013-02-11 15:02:00,65.0,-99.9,30.07,SW,227,13.0,19.0,-999,-99.99,,,-99.99,,2013-02-11 20:02:00,
2013-02-11 15:12:00,65.0,-99.9,30.06,SW,217,11.0,18.0,-999,-99.99,,,-99.99,,2013-02-11 20:12:00,
2013-02-11 15:22:00,65.0,-99.9,30.06,SSW,212,13.0,19.0,-999,-99.99,,,-99.99,,2013-02-11 20:22:00,
2013-02-11 15:32:00,65.0,-99.9,30.06,SW,222,11.0,18.0,-999,-99.99,,,-99.99,,2013-02-11 20:32:00,
2013-02-11 15:42:00,65.0,-99.9,30.06,SW,219,12.0,16.0,-999,-99.99,,,-99.99,,2013-02-11 20:42:00,
2013-02-11 15:52:00,65.0,-99.9,30.06,SW,219,12.0,20.0,-999,-99.99,,,-99.99,,2013-02-11 20:52:00,
2013-02-11 16:02:00,65.0,-99.9,30.06,SW,219,12.0,18.0,-999,-99.99,,,-99.99,,2013-02-11 21:02:00,
2013-02-11 16:12:00,64.0,-99.9,30.06,SW,218,11.0,19.0,-999,-99.99,,,-99.99,,2013-02-11 21:12:00,
2013-02-11 16:22:00,64.0,-99.9,30.06,SW,221,10.0,17.0,-999,-99.99,,,-99.99,,2013-02-11 21:22:00,
2013-02-11 16:32:00,65.0,-99.9,30.07,SW,225,11.0,18.0,-999,-99.99,,,-99.99,,2013-02-11 21:32:00,
2013-02-11 16:42:00,65.0,-99.9,30.07,SW,231,9.0,15.0,-999,-99.99,,,-99.99,,2013-02-11 21:42:00,
2013-02-11 16:52:00,65.0,-99.9,30.07,SW,230,11.0,16.0,-999,-99.99,,,-99.99,,2013-02-11 21:52:00,
2013-02-11 17:02:00,65.0,-99.9,30.07,SW,231,7.0,14.0,-999,-99.99,,,-99.99,,2013-02-11 22:02:00,
2013-02-11 17:12:00,65.0,-99.9,30.06,WSW,237,3.0,9.0,-999,-99.99,,,-99.99,,2013-02-11 22:12:00,
2013-02-11 17:22:00,65.0,-99.9,30.06,SW,223,5.0,9.0,-999,-99.99,,,-99.99,,2013-02-11 22:22:00,
2013-02-11 17:32:00,65.0,-99.9,30.07,SW,228,5.0,8.0,-999,-99.99,,,-99.99,,2013-02-11 22:32:00,
2013-02-11 17:42:00,65.0,-99.9,30.07,SW,226,5.0,9.0,-999,-99.99,,,-99.99,,2013-02-11 22:42:00,
2013-02-11 17:52:00,64.0,-99.9,30.07,SW,228,6.0,9.0,-999,-99.99,,,-99.99,,2013-02-11 22:52:00,
2013-02-11 18:02:00,64.0,-99.9,30.06,SW,228,6.0,8.0,-999,-99.99,,,-99.99,,2013-02-11 23:02:00,
2013-02-11 18:12:00,64.0,-99.9,30.06,SW,219,4.0,8.0,-999,-99.99,,,-99.99,,2013-02-11 23:12:00,
2013-02-11 18:22:00,64.0,-99.9,30.05,SSW,208,4.0,5.0,-999,-99.99,,,-99.99,,2013-02-11 23:22:00,
2013-02-11 18:32:00,64.0,-99.9,30.06,WSW,238,4.0,6.0,-999,-99.99,,,-99.99,,2013-02-11 23:32:00,
2013-02-11 18:42:00,64.0,-99.9,30.05,SW,233,2.0,7.0,-999,-99.99,,,-99.99,,2013-02-11 23:42:00,
2013-02-11 18:53:00,64.0,-99.9,30.06,West,259,4.0,6.0,-999,-99.99,,,-99.99,,2013-02-11 23:53:00,
2013-02-11 19:02:00,64.0,-99.9,30.07,WSW,255,4.0,7.0,-999,-99.99,,,-99.99,,2013-02-12 00:02:00,
2013-02-11 19:12:00,64.0,-99.9,30.07,West,262,5.0,7.0,-999,-99.99,,,-99.99,,2013-02-12 00:12:00,
2013-02-11 19:22:00,64.0,-99.9,30.07,WSW,253,3.0,5.0,-999,-99.99,,,-99.99,,2013-02-12 00:22:00,
2013-02-11 19:32:00,63.0,-99.9,30.07,WNW,295,4.0,6.0,-999,-99.99,,,-99.99,,2013-02-12 00:32:00,
2013-02-11 19:43:00,64.0,-99.9,30.08,WSW,253,5.0,7.0,-999,-99.99,,,-99.99,,2013-02-12 00:43:00,
2013-02-11 19:52:00,63.0,-99.9,30.08,WSW,241,3.0,5.0,-999,-99.99,,,-99.99,,2013-02-12 00:52:00,
2013-02-11 20:02:00,63.0,-99.9,30.09,WSW,253,5.0,7.0,-999,-99.99,,,-99.99,,2013-02-12 01:02:00,
2013-02-11 20:12:00,63.0,-99.9,30.09,WSW,258,4.0,6.0,-999,-99.99,,,-99.99,,2013-02-12 01:12:00,
2013-02-11 20:22:00,63.0,-99.9,30.08,WSW,246,3.0,4.0,-999,-99.99,,,-99.99,,2013-02-12 01:22:00,
2013-02-11 20:32:00,63.0,-99.9,30.08,WNW,283,4.0,7.0,-999,-99.99,,,-99.99,,2013-02-12 01:32:00,
2013-02-11 20:42:00,63.0,-99.9,30.08,WNW,287,6.0,8.0,-999,-99.99,,,-99.99,,2013-02-12 01:42:00,
2013-02-11 20:52:00,63.0,-99.9,30.08,NW,305,4.0,9.0,-999,-99.99,,,-99.99,,2013-02-12 01:52:00,
2013-02-11 21:02:00,63.0,-99.9,30.09,NW,307,5.0,12.0,-999,-99.99,,,-99.99,,2013-02-12 02:02:00,
2013-02-11 21:12:00,63.0,-99.9,30.09,WNW,290,6.0,12.0,-999,-99.99,,,-99.99,,2013-02-12 02:12:00,
2013-02-11 21:22:00,62.0,-99.9,30.09,WNW,285,4.0,11.0,-999,-99.99,,,-99.99,,2013-02-12 02:22:00,
2013-02-11 21:32:00,62.0,-99.9,30.08,NW,309,6.0,11.0,-999,-99.99,,,-99.99,,2013-02-12 02:32:00,
2013-02-11 21:42:00,62.0,-99.9,30.07,NW,313,5.0,7.0,-999,-99.99,,,-99.99,,2013-02-12 02:42:00,
2013-02-11 21:53:00,62.0,-99.9,30.06,NW,306,4.0,9.0,-999,-99.99,,,-99.99,,2013-02-12 02:53:00,
2013-02-11 22:02:00,62.0,-99.9,30.08,WNW,294,5.0,5.0,-999,-99.99,,,-99.99,,2013-02-12 03:02:00,
2013-02-11 22:11:00,62.0,-99.9,30.08,NW,305,4.0,6.0,-999,-99.99,,,-99.99,,2013-02-12 03:11:00,
2013-02-11 22:21:00,61.0,-99.9,30.08,NW,313,5.0,7.0,-999,-99.99,,,-99.99,,2013-02-12 03:21:00,
2013-02-11 22:32:00,61.0,-99.9,30.06,WNW,300,1.0,3.0,-999,-99.99,,,-99.99,,2013-02-12 03:32:00,
2013-02-11 22:42:00,60.0,-99.9,30.06,ESE,116,1.0,2.0,-999,-99.99,,,-99.99,,2013-02-12 03:42:00,
2013-02-11 22:52:00,61.0,-99.9,30.07,SW,221,6.0,8.0,-999,-99.99,,,-99.99,,2013-02-12 03:52:00,
2013-02-11 23:01:00,59.0,-99.9,30.05,South,173,4.0,7.0,-999,-99.99,,,-99.99,,2013-02-12 04:01:00,
2013-02-11 23:11:00,59.0,-99.9,30.05,South,180,5.0,5.0,-999,-99.99,,,-99.99,,2013-02-12 04:11:00,
2013-02-11 23:22:00,58.0,-99.9,30.05,SSE,159,3.0,5.0,-999,-99.99,,,-99.99,,2013-02-12 04:22:00,
2013-02-11 23:32:00,60.0,-99.9,30.07,SW,226,6.0,8.0,-999,-99.99,,,-99.99,,2013-02-12 04:32:00,
2013-02-11 23:42:00,60.0,-99.9,30.07,SW,228,5.0,6.0,-999,-99.99,,,-99.99,,2013-02-12 04:42:00,
2013-02-11 23:52:00,60.0,-99.9,30.07,SW,223,4.0,7.0,-999,-99.99,,,-99.99,,2013-02-12 04:52:00,